GEFSCGP_850_meantemp_252.txt.gz
Temperature
9 9 9 10 10 11 12 12 13 14 14 14 13 13 14 14 15 15 15 15 15 14 14 14 13 14 14 13 14 14 14 14 13 13 13 13 13 13 12 13 13 13 13 13
9 8 10 11 11 11 11 11 12 13 14 13 12 13 13 14 14 14 15 15 14 14 13 13 13 13 13 13 13 13 13 13 13 13 13 13 13 12 12 12 12 12 12 12
8 9 11 11 10 10 10 10 11 11 12 12 12 11 12 13 14 14 14 14 14 13 13 12 12 12 12 12 13 13 13 13 13 13 12 12 12 12 12 12 12 12 12 12
8 10 10 10 10 10 10 11 11 11 10 10 11 9 12 13 13 13 13 13 13 12 12 12 11 11 11 12 12 12 13 13 12 12 12 12 12 12 12 12 12 12 11 12
8 9 9 9 9 10 10 11 11 10 10 9 10 9 10 13 12 12 12 13 12 12 11 11 11 11 11 11 11 12 12 12 12 12 12 12 11 11 11 11 11 11 11 11
8 9 9 9 10 10 10 10 10 9 9 8 9 9 10 12 12 12 12 12 12 11 11 10 10 10 10 10 10 11 11 11 11 11 11 11 11 11 11 11 11 11 11 11
7 8 8 8 8 9 9 7 7 7 7 8 10 10 10 11 12 11 11 11 11 10 10 9 9 9 9 9 10 10 10 10 10 11 11 11 11 11 11 11 10 10 10 10
6 6 7 7 7 7 7 7 7 7 7 8 10 9 10 10 10 11 10 10 9 9 9 8 8 8 8 8 9 9 9 9 10 10 10 10 10 10 10 10 10 10 10 10
5 6 7 8 8 7 7 7 8 7 8 8 8 9 9 10 9 9 9 9 8 8 8 7 7 7 7 7 8 8 8 8 9 9 9 9 10 9 9 10 9 9 9 9
5 4 6 7 7 7 7 7 7 6 7 8 8 8 8 7 8 8 8 8 7 7 7 7 7 7 7 7 7 7 7 7 8 8 9 9 9 9 9 9 9 9 9 9
5 4 5 6 5 6 6 6 6 6 7 7 8 8 8 7 7 7 7 7 6 6 6 6 6 6 6 6 6 6 6 6 7 7 8 8 8 8 8 8 8 8 8 8
4 4 3 5 6 6 6 6 6 5 6 7 7 6 7 7 7 7 6 6 6 5 5 5 6 6 6 6 6 6 6 6 6 6 7 7 7 7 7 7 7 7 8 7
4 3 3 4 5 5 5 5 5 5 5 5 6 6 6 6 6 6 6 5 5 5 5 5 5 5 5 5 5 5 5 5 6 6 6 6 6 6 6 7 7 7 7 7
4 2 2 3 3 3 3 4 5 4 4 5 6 6 5 5 5 5 5 4 4 4 4 4 4 4 4 4 4 4 5 5 5 5 5 6 6 6 6 6 6 6 6 6
3 2 2 3 4 4 4 4 4 4 4 4 5 5 5 5 4 5 4 4 3 3 3 3 3 3 3 4 4 4 4 4 5 5 5 5 5 5 5 5 5 5 5 5
2 1 2 2 4 4 3 4 4 4 4 4 5 5 4 5 5 4 3 3 3 2 2 2 2 3 3 3 3 3 3 4 4 4 4 4 4 4 4 4 4 4 4 4
1 1 1 2 3 3 2 3 3 3 4 4 4 4 3 3 3 3 3 2 2 2 1 1 1 2 2 3 3 3 3 3 3 3 3 3 3 4 3 3 4 4 4 4
0 0 1 1 2 1 2 3 3 3 3 3 3 3 3 3 3 2 2 2 1 1 1 1 1 1 2 2 2 2 2 2 2 3 3 3 3 3 3 3 3 3 3 3
1 1 1 1 1 2 2 2 2 2 2 2 2 2 2 2 2 1 1 1 1 1 1 0 1 1 1 1 2 2 2 2 2 2 2 2 2 2 2 2 2 2 2 2
1 0 -0 1 1 1 2 2 2 2 1 1 1 1 1 1 0 0 0 0 0 0 0 0 0 0 1 1 1 2 1 1 1 1 1 1 1 1 1 1 1 1 1 1
-1 -1 -1 -0 0 1 1 1 2 1 0 1 1 1 0 0 -0 -0 -1 -1 -1 -1 -1 -0 -0 -0 0 0 1 1 1 1 1 1 1 1 1 1 1 1 1 1 1 1
-1 -1 -1 -1 -1 -0 0 1 0 -0 0 0 -0 -0 -1 -1 -1 -1 -1 -1 -1 -1 -1 -1 -1 -1 -1 -0 -0 0 -0 -0 -0 -0 0 0 0 0 0 0 0 0 0 -0
0 -0 -0 -0 -1 -0 -0 -0 -1 -0 -0 -1 -1 -1 -1 -2 -2 -2 -2 -2 -2 -2 -2 -2 -1 -1 -1 -1 -1 -1 -1 -1 -1 -1 -0 -0 -1 -1 -1 -1 -1 -1 -1 -1
-0 -0 -1 -1 -1 -0 -0 -1 -1 -1 -1 -1 -1 -1 -2 -2 -2 -3 -3 -3 -3 -2 -2 -2 -2 -2 -2 -2 -2 -2 -2 -2 -1 -1 -1 -1 -1 -1 -1 -1 -1 -1 -1 -2
-1 -1 -1 -1 -1 -1 -1 -1 -1 -2 -2 -2 -2 -2 -2 -3 -3 -3 -3 -3 -3 -3 -3 -2 -2 -2 -2 -2 -2 -2 -2 -2 -2 -2 -2 -2 -2 -2 -2 -2 -2 -2 -2 -2
-2 -2 -2 -2 -2 -2 -2 -2 -2 -2 -2 -2 -2 -3 -3 -3 -3 -3 -3 -3 -3 -3 -3 -3 -3 -3 -3 -3 -3 -3 -3 -3 -3 -3 -3 -3 -3 -3 -3 -3 -3 -3 -3 -3

GEFSCGP_850_meantemp_258.txt.gz
Temperature
7 6 6 7 7 8 8 8 9 9 10 10 9 10 10 11 11 11 11 11 11 12 13 13 13 13 14 14 14 14 14 14 14 14 13 13 13 13 13 13 13 13 13 13
5 6 7 8 8 8 8 8 8 9 10 10 9 9 10 10 10 11 10 11 11 11 12 12 12 13 13 13 13 13 13 14 14 14 13 13 13 13 13 13 13 12 13 12
5 6 7 8 8 8 8 7 8 8 9 9 9 8 9 9 10 10 10 11 11 11 11 12 12 12 12 13 13 13 13 13 13 13 13 13 12 12 12 12 12 12 12 12
5 6 7 7 7 7 7 8 8 8 8 7 8 7 8 8 8 9 9 10 10 10 11 11 11 12 12 12 12 12 12 12 13 13 13 13 12 12 12 12 12 12 12 12
5 6 6 7 7 7 7 8 8 8 7 6 7 6 7 7 8 8 8 8 9 10 10 10 11 11 11 11 12 12 12 12 12 12 12 12 12 12 12 12 12 11 11 11
5 6 6 6 7 8 7 7 7 6 6 6 6 6 6 6 7 8 8 8 9 9 10 10 10 10 10 11 11 11 11 11 11 11 11 12 11 11 11 11 11 11 11 11
4 5 6 6 6 6 6 6 5 5 5 5 6 6 6 7 7 7 7 8 8 9 9 9 9 9 10 10 10 10 10 10 11 11 11 11 11 11 11 11 11 11 11 11
3 3 5 5 6 5 5 5 5 5 5 5 6 5 6 6 6 7 8 7 8 8 8 8 8 9 9 9 9 9 10 10 10 10 10 10 10 10 10 10 10 10 10 10
3 3 4 5 6 6 5 5 5 4 4 4 5 5 6 6 6 6 6 6 6 7 7 7 8 8 8 8 9 9 9 9 9 9 9 9 9 10 10 10 10 10 10 10
2 2 3 4 5 5 5 5 4 4 4 5 5 5 5 5 5 5 5 5 5 6 6 6 7 7 7 8 8 8 8 8 8 8 9 9 9 9 9 9 9 9 9 9
2 1 2 3 3 4 4 4 3 3 3 4 4 4 5 5 5 4 4 5 5 5 5 6 6 6 7 7 7 7 7 7 7 8 8 8 8 8 8 8 8 8 8 8
2 1 1 2 3 4 4 3 3 3 3 2 3 4 5 3 4 4 4 4 4 4 5 5 5 6 6 6 6 6 7 7 7 7 7 7 7 7 7 7 7 7 7 8
2 0 1 2 2 2 2 3 3 2 2 2 3 4 4 3 3 4 4 3 3 4 4 4 4 5 5 5 6 6 6 6 6 6 6 6 6 6 6 6 7 7 7 7
2 -0 0 2 2 1 1 2 2 2 2 2 2 3 4 3 3 2 3 3 3 3 3 3 3 4 4 4 5 5 5 5 5 5 5 5 5 5 6 6 6 6 6 6
0 -0 -0 0 1 1 2 2 2 2 2 2 3 3 4 3 2 2 2 2 2 2 2 2 3 3 3 4 4 4 4 4 5 5 5 5 5 5 5 5 5 5 5 5
-1 -1 -0 0 1 1 1 1 2 2 2 2 2 2 2 2 2 2 1 1 1 1 1 2 2 2 3 3 3 3 4 4 4 4 4 4 4 4 4 4 4 4 4 4
-2 -1 -1 -0 -0 0 0 1 1 1 1 2 2 2 1 1 1 1 1 1 1 1 1 1 2 2 2 2 3 3 3 3 3 4 4 4 4 3 3 3 3 3 3 3
-2 -2 -2 -1 -1 -1 0 0 0 1 0 0 1 1 1 1 1 1 1 1 0 1 1 1 1 1 1 2 2 2 2 3 3 3 3 3 3 3 3 3 3 3 3 3
-2 -2 -2 -2 -2 -1 -0 0 -0 -0 -0 -0 -0 0 0 0 0 -0 1 1 0 0 1 1 1 1 1 1 1 1 2 2 2 2 2 2 2 2 2 2 2 2 2 2
-2 -3 -3 -3 -2 -1 -0 -0 -0 0 -0 -1 -1 -1 -1 -1 -1 -1 0 0 0 0 0 0 0 0 0 1 1 1 1 1 1 1 1 1 1 1 1 1 1 1 1 1
-3 -3 -3 -3 -3 -2 -1 -1 0 -0 -0 -0 -0 -1 -1 -1 -1 -0 -0 -0 -0 -0 -0 -0 -0 -0 -0 -0 -0 0 0 1 1 1 1 1 1 1 1 1 1 1 1 1
-3 -3 -4 -4 -3 -2 -1 -1 -1 -1 -1 -1 -0 -0 -1 -1 -1 -1 -1 -1 -1 -1 -1 -1 -1 -1 -1 -1 -1 -0 -0 -0 -0 -0 -0 0 0 -0 -0 -0 -0 -0 -0 -0
-3 -3 -3 -3 -2 -2 -1 -1 -0 -0 -1 -1 -1 -0 -1 -1 -1 -2 -2 -2 -2 -2 -2 -2 -2 -2 -2 -2 -1 -1 -1 -1 -1 -1 -1 -1 -1 -1 -1 -1 -1 -1 -1 -1
-3 -3 -3 -4 -3 -2 -2 -1 -1 -1 -1 -1 -1 -1 -1 -1 -2 -2 -2 -2 -2 -2 -2 -2 -2 -2 -2 -2 -2 -2 -2 -2 -2 -1 -1 -1 -1 -1 -2 -2 -1 -1 -1 -1
-4 -4 -4 -3 -3 -3 -2 -1 -1 -1 -1 -1 -1 -1 -2 -2 -2 -2 -3 -3 -3 -3 -2 -2 -2 -2 -2 -2 -2 -2 -2 -2 -2 -2 -2 -2 -2 -2 -2 -2 -2 -2 -2 -2
-5 -4 -4 -3 -3 -3 -2 -1 -1 -1 -2 -2 -2 -2 -2 -2 -2 -3 -3 -3 -3 -3 -3 -3 -3 -3 -3 -3 -3 -3 -3 -3 -3 -3 -3 -3 -3 -3 -3 -3 -3 -3 -3 -3

GEFSCGP_850_meantemp_264.txt.gz
Temperature
5 5 5 6 7 7 7 7 7 7 8 8 8 8 8 8 8 8 9 9 10 11 11 12 12 13 13 13 13 13 13 13 13 13 13 13 13 13 13 13 13 13 13 13
4 5 6 6 7 7 7 7 7 7 8 8 7 7 7 7 7 8 8 8 9 10 11 11 12 12 12 12 13 12 13 13 13 13 13 13 13 13 13 12 12 12 12 12
4 5 6 6 6 6 6 6 6 7 7 7 7 7 7 7 7 8 8 8 9 9 10 11 11 11 11 12 12 12 12 12 12 12 12 12 12 12 12 12 12 12 12 12
4 5 6 6 6 6 6 7 7 7 7 6 7 6 6 6 6 6 7 8 8 9 10 10 10 11 11 11 12 12 12 12 12 12 12 12 12 12 12 12 12 12 12 12
4 5 5 5 6 6 6 7 7 7 6 5 6 6 6 6 6 6 6 7 8 9 9 9 10 10 11 11 11 11 11 11 11 11 11 11 11 12 12 11 11 11 11 11
4 4 5 5 6 6 6 6 6 5 5 5 5 5 5 5 6 6 6 6 7 8 9 9 9 10 10 10 10 10 11 11 11 11 11 11 11 11 11 11 11 11 11 11
3 4 4 5 5 5 5 5 5 5 5 5 5 5 5 5 5 5 6 6 7 7 8 8 9 9 9 9 10 10 10 10 10 10 10 10 10 10 10 11 10 10 10 10
2 3 3 4 4 4 4 5 5 5 5 4 4 4 5 5 5 5 5 5 6 6 7 7 8 8 9 9 9 9 9 9 9 9 9 9 10 10 10 10 10 10 10 10
2 2 3 4 4 4 4 4 4 3 3 3 3 3 4 4 4 4 4 5 5 5 6 7 7 8 8 8 8 9 9 9 9 9 9 9 9 9 9 9 9 9 9 9
2 2 2 3 4 4 4 3 3 3 4 4 4 3 4 4 4 4 3 4 4 5 5 6 7 7 7 8 8 8 8 8 8 8 8 8 8 8 8 8 8 8 8 8
1 1 2 2 2 2 3 3 2 2 2 3 4 4 4 3 3 3 3 4 4 4 5 5 6 6 6 7 7 7 7 7 7 7 7 7 7 7 7 7 8 8 7 7
1 0 0 1 2 2 2 2 2 3 2 1 2 3 4 2 2 2 3 3 3 4 4 5 5 5 6 6 6 6 6 6 6 6 7 7 7 7 7 7 7 7 7 7
0 -0 0 1 2 1 1 1 1 1 1 0 2 4 3 2 2 2 2 3 3 3 3 4 4 4 5 5 5 5 5 6 6 6 6 6 6 6 6 6 6 6 6 6
1 -1 -0 1 1 0 0 1 1 1 1 1 1 3 3 2 2 2 2 2 3 3 3 3 3 4 4 4 4 5 5 5 5 5 5 5 5 5 5 5 5 5 5 5
-0 -1 -2 -1 -0 0 0 1 1 1 1 1 2 2 2 2 1 1 1 2 2 2 2 3 3 3 3 3 4 4 4 4 4 4 5 5 5 4 4 4 4 4 4 5
-2 -2 -2 -1 -0 -0 -0 0 1 1 1 1 1 1 1 1 1 1 1 1 1 1 2 2 2 2 3 3 3 3 3 3 4 4 4 4 4 4 4 4 4 4 4 4
-3 -2 -1 -1 -1 -0 -0 -0 -0 -0 -0 0 1 1 0 -0 -0 0 1 1 1 1 1 1 2 2 2 2 2 3 3 3 3 3 3 3 3 4 4 4 4 3 3 3
-3 -3 -3 -2 -1 -0 0 -1 -1 -1 -1 -1 -1 -1 -0 0 1 1 1 1 1 1 1 1 1 1 2 2 2 2 2 2 2 2 2 3 3 3 3 3 3 3 3 3
-3 -3 -3 -3 -2 -2 -1 -1 -2 -2 -1 -2 -1 -1 -1 -1 -1 0 1 1 1 1 1 1 1 1 1 1 1 1 1 1 1 2 2 2 2 2 2 2 2 2 2 2
-3 -4 -4 -4 -2 -1 -0 -1 -1 -1 -1 -1 -2 -2 -2 -2 -1 -0 1 1 1 1 1 0 0 0 0 0 1 1 1 1 1 1 1 1 1 1 1 1 1 1 1 1
-4 -4 -4 -4 -3 -2 -2 -2 -1 -1 -0 -1 -1 -1 -1 -2 -1 1 1 1 1 0 0 -0 0 0 0 0 0 0 0 0 0 0 0 0 0 1 1 1 0 0 0 0
-3 -4 -5 -5 -4 -2 -2 -2 -2 -1 -0 -0 -1 -1 -1 -1 -0 0 0 0 -0 -0 -0 -0 -0 -0 -0 -0 -0 -0 -0 -0 -0 -0 -0 -0 -0 -0 -0 -0 -0 -0 -0 -0
-4 -4 -4 -4 -2 -2 -2 -2 -1 -1 -1 -1 -0 -0 -1 -1 -1 -0 -0 -1 -1 -1 -1 -1 -1 -1 -1 -1 -1 -1 -1 -1 -1 -1 -1 -1 -1 -1 -1 -1 -1 -1 -1 -1
-5 -5 -5 -5 -4 -3 -2 -1 -1 -1 -1 -0 -1 -1 -1 -1 -1 -1 -1 -1 -1 -1 -1 -1 -1 -1 -1 -1 -1 -1 -1 -2 -1 -1 -1 -2 -2 -2 -2 -2 -2 -2 -2 -2
-5 -5 -5 -5 -4 -3 -2 -1 -1 -1 -1 -1 -1 -1 -1 -1 -1 -2 -2 -2 -2 -2 -2 -2 -2 -2 -2 -2 -2 -2 -2 -2 -2 -2 -2 -2 -2 -2 -2 -2 -2 -2 -2 -2
-6 -5 -5 -3 -3 -4 -2 -0 -1 -1 -1 -1 -1 -1 -2 -2 -2 -2 -2 -2 -2 -2 -2 -2 -2 -2 -2 -3 -3 -3 -3 -3 -3 -3 -3 -3 -3 -3 -3 -3 -3 -3 -3 -3

GEFSCGP_850_meantemp_270.txt.gz
Temperature
7 8 8 8 9 10 10 10 10 11 11 11 11 11 11 10 10 11 10 10 10 10 10 10 11 11 11 12 12 12 12 12 12 12 12 12 13 13 12 12 12 12 12 12
8 7 7 8 8 9 10 10 10 10 10 11 11 11 11 10 10 10 10 10 9 9 10 10 10 11 11 11 11 11 11 11 11 12 12 12 12 12 12 12 12 12 12 12
7 7 7 8 8 8 9 10 10 9 9 10 10 11 11 11 10 9 9 9 9 9 9 9 10 10 11 11 11 11 11 11 11 11 11 11 11 11 11 11 11 11 11 12
7 7 7 7 8 8 9 9 9 9 9 10 10 11 11 11 10 10 9 9 9 8 8 9 9 10 10 10 11 11 11 11 11 11 11 11 11 11 11 11 11 11 11 11
6 6 6 7 7 7 8 9 9 9 9 9 10 10 11 10 10 11 10 9 8 8 8 8 9 9 10 10 10 10 10 10 10 10 10 10 10 10 11 11 11 11 11 11
6 6 6 6 7 7 8 8 9 9 9 9 10 10 11 11 11 11 10 9 8 8 8 8 8 9 9 9 10 10 10 10 10 10 10 10 10 10 10 10 10 10 10 10
6 6 6 6 7 7 8 8 8 8 8 9 9 9 11 10 10 10 9 8 7 7 7 7 8 8 8 9 9 9 9 9 9 9 9 9 9 9 9 10 9 10 10 10
6 6 5 6 6 6 7 8 8 9 9 9 8 9 10 9 8 8 7 7 7 6 6 7 7 7 8 8 8 9 9 9 9 9 9 9 9 9 9 9 9 9 9 9
6 6 5 5 5 6 6 7 7 7 8 8 9 9 9 8 8 8 7 7 6 5 6 6 6 7 7 7 8 8 8 8 8 9 9 9 9 9 9 9 8 9 9 9
4 4 5 5 6 6 6 6 7 7 8 9 9 9 10 9 8 8 7 7 6 5 5 5 6 6 7 7 7 7 7 8 8 8 8 8 8 8 8 8 8 8 8 8
4 4 5 5 4 5 5 5 6 7 7 9 9 10 9 9 8 7 7 6 5 4 4 5 5 6 6 6 7 7 7 7 7 7 7 7 8 8 8 8 8 8 8 7
3 4 4 4 4 4 4 5 5 7 6 7 9 9 7 7 7 6 6 5 4 4 4 4 4 5 5 6 6 6 6 6 6 6 7 7 7 7 7 7 7 7 7 7
3 3 5 5 4 4 4 4 4 5 6 7 8 9 6 6 5 5 5 4 3 3 3 3 4 4 4 5 5 5 5 5 6 6 6 6 6 6 6 6 6 6 6 6
3 2 4 6 5 4 4 3 4 4 6 6 7 8 7 6 6 5 4 3 3 3 3 3 3 3 4 4 4 4 5 5 5 5 5 5 5 5 5 5 5 5 5 5
2 2 1 2 3 3 3 3 3 3 5 6 7 6 7 7 6 4 4 3 3 2 2 3 3 3 3 3 4 4 4 4 4 4 4 4 4 4 5 5 5 4 4 4
1 1 1 2 2 2 2 3 3 3 4 4 5 5 6 5 4 4 3 3 2 2 2 2 2 2 3 3 3 3 3 3 3 3 4 4 4 4 4 4 4 4 4 4
0 0 2 4 2 2 4 4 3 3 3 4 5 6 4 4 3 3 3 2 2 2 2 2 2 2 2 2 2 3 3 3 3 3 3 3 3 3 3 3 3 3 3 3
-1 -0 1 2 2 3 5 2 3 3 3 3 3 4 3 3 2 2 2 2 2 2 2 2 2 2 2 2 2 2 2 2 2 2 2 2 2 3 3 3 2 2 2 2
-0 0 1 2 3 4 4 2 1 2 3 2 2 2 2 1 1 2 2 2 1 1 1 1 1 1 1 1 1 2 2 2 2 2 2 2 2 2 2 2 2 2 2 2
-1 -1 1 1 2 4 5 1 -0 2 3 2 1 1 1 1 3 4 2 1 1 1 1 1 1 1 1 1 1 1 1 1 1 1 1 1 1 1 1 1 1 1 1 1
-1 -1 -0 1 2 3 3 -0 0 3 4 2 1 1 0 1 2 1 1 1 1 1 1 1 1 1 0 0 1 1 1 1 1 1 1 1 0 0 0 0 0 0 0 0
0 0 -1 0 1 3 1 -0 1 3 1 1 0 0 -0 -0 -0 -0 0 0 0 0 0 0 0 0 0 -0 0 0 0 0 0 0 0 0 -0 -0 -0 -0 -0 -0 -0 -0
-0 0 1 1 2 1 -1 -0 -0 -0 -0 -0 -0 -1 -1 -1 -1 -1 -1 -1 -0 -0 -0 -0 -0 -0 -0 -0 -0 0 0 -0 -0 -0 -0 -0 -1 -1 -1 -1 -1 -1 -1 -1
-1 -2 -1 -1 -0 -1 -2 -2 -1 -1 -1 -1 -1 -1 -1 -1 -1 -1 -1 -1 -1 -1 -1 -1 -1 -1 -1 -1 -1 -1 -1 -1 -1 -1 -1 -1 -1 -1 -1 -2 -2 -2 -2 -2
-0 -2 -2 -1 -0 -1 -1 -1 -1 -1 -1 -1 -1 -1 -1 -2 -2 -2 -2 -2 -2 -2 -2 -1 -1 -1 -1 -1 -1 -1 -1 -1 -1 -1 -1 -2 -2 -2 -2 -2 -2 -2 -2 -2
-2 -2 -1 1 0 -0 -0 -0 -1 -1 -1 -1 -1 -2 -2 -2 -2 -2 -2 -2 -2 -2 -2 -2 -2 -2 -2 -2 -2 -2 -2 -2 -2 -2 -2 -2 -2 -2 -3 -3 -3 -3 -3 -3